Year,Month,Day,Hour,Minute,Value (Times are PST for temperature in C)
2016,02,17,00,00,8.60
2016,02,17,00,01,8.60
2016,02,17,00,02,8.60
2016,02,17,00,03,8.60
2016,02,17,00,04,8.70
2016,02,17,00,05,8.70
2016,02,17,00,06,8.70
2016,02,17,00,07,8.70
2016,02,17,00,08,8.70
2016,02,17,00,09,8.70
2016,02,17,00,10,8.70
2016,02,17,00,11,8.70
2016,02,17,00,12,8.70
2016,02,17,00,13,8.70
2016,02,17,00,14,8.70
2016,02,17,00,15,8.70
2016,02,17,00,16,8.70
2016,02,17,00,17,8.70
2016,02,17,00,18,8.70
2016,02,17,00,19,8.70
2016,02,17,00,20,8.70
2016,02,17,00,21,8.70
2016,02,17,00,22,8.70
2016,02,17,00,23,8.70
2016,02,17,00,24,8.70
2016,02,17,00,25,8.70
2016,02,17,00,26,8.70
2016,02,17,00,27,8.70
2016,02,17,00,28,8.70
2016,02,17,00,29,8.70
2016,02,17,00,30,8.70
2016,02,17,00,31,8.70
2016,02,17,00,32,8.70
2016,02,17,00,33,8.70
2016,02,17,00,34,8.70
2016,02,17,00,35,8.70
2016,02,17,00,36,8.70
2016,02,17,00,37,8.70
2016,02,17,00,38,8.70
2016,02,17,00,39,8.70
2016,02,17,00,40,8.70
2016,02,17,00,41,8.70
2016,02,17,00,42,8.70
2016,02,17,00,43,8.70
2016,02,17,00,44,8.70
2016,02,17,00,45,8.70
2016,02,17,00,46,8.70
2016,02,17,00,47,8.60
2016,02,17,00,48,8.70
2016,02,17,00,49,8.70
2016,02,17,00,50,8.70
2016,02,17,00,51,8.70
2016,02,17,00,52,8.70
2016,02,17,00,53,8.70
2016,02,17,00,54,8.70
2016,02,17,00,55,8.70
2016,02,17,00,56,8.70
2016,02,17,00,57,8.70
2016,02,17,00,58,8.70
2016,02,17,00,59,8.70
2016,02,17,01,00,8.70
2016,02,17,01,01,8.70
2016,02,17,01,02,8.70
2016,02,17,01,03,8.70
2016,02,17,01,04,8.70
2016,02,17,01,05,8.70
2016,02,17,01,06,8.70
2016,02,17,01,07,8.70
2016,02,17,01,08,8.70
2016,02,17,01,09,8.70
2016,02,17,01,10,8.70
2016,02,17,01,11,8.70
2016,02,17,01,12,8.70
2016,02,17,01,13,8.70
2016,02,17,01,14,8.70
2016,02,17,01,15,8.70
2016,02,17,01,16,8.80
2016,02,17,01,17,8.80
2016,02,17,01,18,8.80
2016,02,17,01,19,8.80
2016,02,17,01,20,8.80
2016,02,17,01,21,8.80
2016,02,17,01,22,8.90
2016,02,17,01,23,8.90
2016,02,17,01,24,8.90
2016,02,17,01,25,8.90
2016,02,17,01,26,8.90
2016,02,17,01,27,8.90
2016,02,17,01,28,8.90
2016,02,17,01,29,8.90
2016,02,17,01,30,8.90
2016,02,17,01,31,8.90
2016,02,17,01,32,8.90
2016,02,17,01,33,8.90
2016,02,17,01,34,8.90
2016,02,17,01,35,8.90
2016,02,17,01,36,8.90
2016,02,17,01,37,8.90
2016,02,17,01,38,8.90
2016,02,17,01,39,8.90
2016,02,17,01,40,8.90
2016,02,17,01,41,8.90
2016,02,17,01,42,8.90
2016,02,17,01,43,8.90
2016,02,17,01,44,8.90
2016,02,17,01,45,8.90
2016,02,17,01,46,8.90
2016,02,17,01,47,8.90
2016,02,17,01,48,8.90
2016,02,17,01,49,8.90
2016,02,17,01,50,8.90
2016,02,17,01,51,8.90
2016,02,17,01,52,8.90
2016,02,17,01,53,8.90
2016,02,17,01,54,8.90
2016,02,17,01,55,8.90
2016,02,17,01,56,8.90
2016,02,17,01,57,8.90
2016,02,17,01,58,8.90
2016,02,17,01,59,8.90
2016,02,17,02,00,8.90
2016,02,17,02,01,8.90
2016,02,17,02,02,8.90
2016,02,17,02,03,8.90
2016,02,17,02,04,8.90
2016,02,17,02,05,8.90
2016,02,17,02,06,8.90
2016,02,17,02,07,9.00
2016,02,17,02,08,9.00
2016,02,17,02,09,9.00
2016,02,17,02,10,9.10
2016,02,17,02,11,9.10
2016,02,17,02,12,9.10
2016,02,17,02,13,9.10
2016,02,17,02,14,9.10
2016,02,17,02,15,9.10
2016,02,17,02,16,9.10
2016,02,17,02,17,9.10
2016,02,17,02,18,9.10
2016,02,17,02,19,9.10
2016,02,17,02,20,9.10
2016,02,17,02,21,9.10
2016,02,17,02,22,9.10
2016,02,17,02,23,9.10
2016,02,17,02,24,9.10
2016,02,17,02,25,9.10
2016,02,17,02,26,9.10
2016,02,17,02,27,9.10
2016,02,17,02,28,9.10
2016,02,17,02,29,9.10
2016,02,17,02,30,9.00
2016,02,17,02,31,9.00
2016,02,17,02,32,9.00
2016,02,17,02,33,9.00
2016,02,17,02,34,9.00
2016,02,17,02,35,8.90
2016,02,17,02,36,8.90
2016,02,17,02,37,8.90
2016,02,17,02,38,9.00
2016,02,17,02,39,9.00
2016,02,17,02,40,9.00
2016,02,17,02,41,9.00
2016,02,17,02,42,9.00
2016,02,17,02,43,9.10
2016,02,17,02,44,9.10
2016,02,17,02,45,9.10
2016,02,17,02,46,9.10
2016,02,17,02,47,9.10
2016,02,17,02,48,9.10
2016,02,17,02,49,9.10
2016,02,17,02,50,9.10
2016,02,17,02,51,9.10
2016,02,17,02,52,9.00
2016,02,17,02,53,9.00
2016,02,17,02,54,9.00
2016,02,17,02,55,9.00
2016,02,17,02,56,9.00
2016,02,17,02,57,9.00
2016,02,17,02,58,9.00
2016,02,17,02,59,8.90
2016,02,17,03,00,9.00
2016,02,17,03,01,9.00
2016,02,17,03,02,9.00
2016,02,17,03,03,9.00
2016,02,17,03,04,9.00
2016,02,17,03,05,9.00
2016,02,17,03,06,9.00
2016,02,17,03,07,9.10
2016,02,17,03,08,9.10
2016,02,17,03,09,9.10
2016,02,17,03,10,9.10
2016,02,17,03,11,9.10
2016,02,17,03,12,9.10
2016,02,17,03,13,9.10
2016,02,17,03,14,9.10
2016,02,17,03,15,9.10
2016,02,17,03,16,9.20
2016,02,17,03,17,9.20
2016,02,17,03,18,9.20
2016,02,17,03,19,9.20
2016,02,17,03,20,9.20
2016,02,17,03,21,9.20
2016,02,17,03,22,9.20
2016,02,17,03,23,9.20
2016,02,17,03,24,9.10
2016,02,17,03,25,9.10
2016,02,17,03,26,9.20
2016,02,17,03,27,9.10
2016,02,17,03,28,9.10
2016,02,17,03,29,9.10
2016,02,17,03,30,9.10
2016,02,17,03,31,9.10
2016,02,17,03,32,9.10
2016,02,17,03,33,9.10
2016,02,17,03,34,9.10
2016,02,17,03,35,9.10
2016,02,17,03,36,9.10
2016,02,17,03,37,9.10
2016,02,17,03,38,9.10
2016,02,17,03,39,9.10
2016,02,17,03,40,9.10
2016,02,17,03,41,9.10
2016,02,17,03,42,9.10
2016,02,17,03,43,9.00
2016,02,17,03,44,9.00
2016,02,17,03,45,9.00
2016,02,17,03,46,9.00
2016,02,17,03,47,9.00
2016,02,17,03,48,9.00
2016,02,17,03,49,9.00
2016,02,17,03,50,9.00
2016,02,17,03,51,9.00
2016,02,17,03,52,9.00
2016,02,17,03,53,9.00
2016,02,17,03,54,9.00
2016,02,17,03,55,9.00
2016,02,17,03,56,9.00
2016,02,17,03,57,9.00
2016,02,17,03,58,8.90
2016,02,17,03,59,8.90
2016,02,17,04,00,8.90
2016,02,17,04,01,8.90
2016,02,17,04,02,8.90
2016,02,17,04,03,8.90
2016,02,17,04,04,8.80
2016,02,17,04,05,8.80
2016,02,17,04,06,8.80
2016,02,17,04,07,8.80
2016,02,17,04,08,8.80
2016,02,17,04,09,8.80
2016,02,17,04,10,8.80
2016,02,17,04,11,8.70
2016,02,17,04,12,8.70
2016,02,17,04,13,8.70
2016,02,17,04,14,8.70
2016,02,17,04,15,8.70
2016,02,17,04,16,8.70
2016,02,17,04,17,8.70
2016,02,17,04,18,8.70
2016,02,17,04,19,8.70
2016,02,17,04,20,8.70
2016,02,17,04,21,8.70
2016,02,17,04,22,8.70
2016,02,17,04,23,8.70
2016,02,17,04,24,8.70
2016,02,17,04,25,8.70
2016,02,17,04,26,8.60
2016,02,17,04,27,8.60
2016,02,17,04,28,8.60
2016,02,17,04,29,8.60
2016,02,17,04,30,8.60
2016,02,17,04,31,8.60
2016,02,17,04,32,8.60
2016,02,17,04,33,8.60
2016,02,17,04,34,8.60
2016,02,17,04,35,8.60
2016,02,17,04,36,8.60
2016,02,17,04,37,8.60
2016,02,17,04,38,8.60
2016,02,17,04,39,8.60
2016,02,17,04,40,8.60
2016,02,17,04,41,8.50
2016,02,17,04,42,8.50
2016,02,17,04,43,8.50
2016,02,17,04,44,8.50
2016,02,17,04,45,8.50
2016,02,17,04,46,8.40
2016,02,17,04,47,8.40
2016,02,17,04,48,8.40
2016,02,17,04,49,8.40
2016,02,17,04,50,8.40
2016,02,17,04,51,8.40
2016,02,17,04,52,8.40
2016,02,17,04,53,8.30
2016,02,17,04,54,8.30
2016,02,17,04,55,8.30
2016,02,17,04,56,8.30
2016,02,17,04,57,8.30
2016,02,17,04,58,8.30
2016,02,17,04,59,8.30
2016,02,17,05,00,8.30
2016,02,17,05,01,8.30
2016,02,17,05,02,8.30
2016,02,17,05,03,8.30
2016,02,17,05,04,8.30
2016,02,17,05,05,8.30
2016,02,17,05,06,8.30
2016,02,17,05,07,8.30
2016,02,17,05,08,8.30
2016,02,17,05,09,8.30
2016,02,17,05,10,8.30
2016,02,17,05,11,8.30
2016,02,17,05,12,8.30
2016,02,17,05,13,8.40
2016,02,17,05,14,8.40
2016,02,17,05,15,8.40
2016,02,17,05,16,8.40
2016,02,17,05,17,8.40
2016,02,17,05,18,8.40
2016,02,17,05,19,8.40
2016,02,17,05,20,8.40
2016,02,17,05,21,8.40
2016,02,17,05,22,8.40
2016,02,17,05,23,8.40
2016,02,17,05,24,8.40
2016,02,17,05,25,8.50
2016,02,17,05,26,8.50
2016,02,17,05,27,8.50
2016,02,17,05,28,8.50
2016,02,17,05,29,8.50
2016,02,17,05,30,8.50
2016,02,17,05,31,8.50
2016,02,17,05,32,8.50
2016,02,17,05,33,8.50
2016,02,17,05,34,8.50
2016,02,17,05,35,8.50
2016,02,17,05,36,8.50
2016,02,17,05,37,8.50
2016,02,17,05,38,8.50
2016,02,17,05,39,8.50
2016,02,17,05,40,8.50
2016,02,17,05,41,8.50
2016,02,17,05,42,8.50
2016,02,17,05,43,8.50
2016,02,17,05,44,8.50
2016,02,17,05,45,8.50
2016,02,17,05,46,8.50
2016,02,17,05,47,8.50
2016,02,17,05,48,8.50
2016,02,17,05,49,8.50
2016,02,17,05,50,8.50
2016,02,17,05,51,8.50
2016,02,17,05,52,8.50
2016,02,17,05,53,8.50
2016,02,17,05,54,8.50
2016,02,17,05,55,8.60
2016,02,17,05,56,8.60
2016,02,17,05,57,8.60
2016,02,17,05,58,8.60
2016,02,17,05,59,8.60
2016,02,17,06,00,8.60
2016,02,17,06,01,8.60
2016,02,17,06,02,8.60
2016,02,17,06,03,8.60
2016,02,17,06,04,8.60
2016,02,17,06,05,8.50
2016,02,17,06,06,8.50
2016,02,17,06,07,8.50
2016,02,17,06,08,8.50
2016,02,17,06,09,8.50
2016,02,17,06,10,8.40
2016,02,17,06,11,8.40
2016,02,17,06,12,8.40
2016,02,17,06,13,8.30
2016,02,17,06,14,8.30
2016,02,17,06,15,8.30
2016,02,17,06,16,8.30
2016,02,17,06,17,8.30
2016,02,17,06,18,8.30
2016,02,17,06,19,8.30
2016,02,17,06,20,8.20
2016,02,17,06,21,8.20
2016,02,17,06,22,8.20
2016,02,17,06,23,8.20
2016,02,17,06,24,8.20
2016,02,17,06,25,8.10
2016,02,17,06,26,8.10
2016,02,17,06,27,8.10
2016,02,17,06,28,8.00
2016,02,17,06,29,8.00
2016,02,17,06,30,8.00
2016,02,17,06,31,8.00
2016,02,17,06,32,7.90
2016,02,17,06,33,7.90
2016,02,17,06,34,7.90
2016,02,17,06,35,7.90
2016,02,17,06,36,7.90
2016,02,17,06,37,7.90
2016,02,17,06,38,7.90
2016,02,17,06,39,7.90
2016,02,17,06,40,7.90
2016,02,17,06,41,7.90
2016,02,17,06,42,7.90
2016,02,17,06,43,7.90
2016,02,17,06,44,7.90
2016,02,17,06,45,7.90
2016,02,17,06,46,7.90
2016,02,17,06,47,7.90
2016,02,17,06,48,7.90
2016,02,17,06,49,7.90
2016,02,17,06,50,7.80
2016,02,17,06,51,7.80
2016,02,17,06,52,7.80
2016,02,17,06,53,7.80
2016,02,17,06,54,7.80
2016,02,17,06,55,7.80
2016,02,17,06,56,7.80
2016,02,17,06,57,7.70
2016,02,17,06,58,7.70
2016,02,17,06,59,7.70
2016,02,17,07,00,7.70
2016,02,17,07,01,7.70
2016,02,17,07,02,7.70
2016,02,17,07,03,7.70
2016,02,17,07,04,7.60
2016,02,17,07,05,7.60
2016,02,17,07,06,7.60
2016,02,17,07,07,7.60
2016,02,17,07,08,7.60
2016,02,17,07,09,7.60
2016,02,17,07,10,7.60
2016,02,17,07,11,7.60
2016,02,17,07,12,7.60
2016,02,17,07,13,7.60
2016,02,17,07,14,7.60
2016,02,17,07,15,7.60
2016,02,17,07,16,7.60
2016,02,17,07,17,7.60
2016,02,17,07,18,7.60
2016,02,17,07,19,7.60
2016,02,17,07,20,7.60
2016,02,17,07,21,7.60
2016,02,17,07,22,7.60
2016,02,17,07,23,7.60
2016,02,17,07,24,7.60
2016,02,17,07,25,7.60
2016,02,17,07,26,7.60
2016,02,17,07,27,7.60
2016,02,17,07,28,7.60
2016,02,17,07,29,7.50
2016,02,17,07,30,7.50
2016,02,17,07,31,7.50
2016,02,17,07,32,7.50
2016,02,17,07,33,7.50
2016,02,17,07,34,7.50
2016,02,17,07,35,7.50
2016,02,17,07,36,7.50
2016,02,17,07,37,7.50
2016,02,17,07,38,7.50
2016,02,17,07,39,7.50
2016,02,17,07,40,7.50
2016,02,17,07,41,7.50
2016,02,17,07,42,7.50
2016,02,17,07,43,7.50
2016,02,17,07,44,7.50
2016,02,17,07,45,7.50
2016,02,17,07,46,7.50
2016,02,17,07,47,7.50
2016,02,17,07,48,7.50
2016,02,17,07,49,7.50
2016,02,17,07,50,7.50
2016,02,17,07,51,7.50
2016,02,17,07,52,7.50
2016,02,17,07,53,7.50
2016,02,17,07,54,7.50
2016,02,17,07,55,7.50
2016,02,17,07,56,7.50
2016,02,17,07,57,7.50
2016,02,17,07,58,7.60
2016,02,17,07,59,7.60
2016,02,17,08,00,7.60
2016,02,17,08,01,7.60
2016,02,17,08,02,7.60
2016,02,17,08,03,7.60
2016,02,17,08,04,7.60
2016,02,17,08,05,7.60
2016,02,17,08,06,7.60
2016,02,17,08,07,7.60
2016,02,17,08,08,7.60
2016,02,17,08,09,7.60
2016,02,17,08,10,7.60
2016,02,17,08,11,7.60
2016,02,17,08,12,7.60
2016,02,17,08,13,7.60
2016,02,17,08,14,7.60
2016,02,17,08,15,7.60
2016,02,17,08,16,7.60
2016,02,17,08,17,7.60
2016,02,17,08,18,7.60
2016,02,17,08,19,7.60
2016,02,17,08,20,7.60
2016,02,17,08,21,7.60
2016,02,17,08,22,7.60
2016,02,17,08,23,7.60
2016,02,17,08,24,7.60
2016,02,17,08,25,7.60
2016,02,17,08,26,7.60
2016,02,17,08,27,7.60
2016,02,17,08,28,7.60
2016,02,17,08,29,7.60
2016,02,17,08,30,7.60
2016,02,17,08,31,7.60
2016,02,17,08,32,7.60
2016,02,17,08,33,7.60
2016,02,17,08,34,7.70
2016,02,17,08,35,7.70
2016,02,17,08,36,7.70
2016,02,17,08,37,7.70
2016,02,17,08,38,7.70
2016,02,17,08,39,7.70
2016,02,17,08,40,7.70
2016,02,17,08,41,7.70
2016,02,17,08,42,7.70
2016,02,17,08,43,7.70
2016,02,17,08,44,7.70
2016,02,17,08,45,7.70
2016,02,17,08,46,7.70
2016,02,17,08,47,7.70
2016,02,17,08,48,7.70
2016,02,17,08,49,7.70
2016,02,17,08,50,7.70
2016,02,17,08,51,7.70
2016,02,17,08,52,7.70
2016,02,17,08,53,7.70
2016,02,17,08,54,7.70
2016,02,17,08,55,7.70
2016,02,17,08,56,7.70
2016,02,17,08,57,7.70
2016,02,17,08,58,7.70
2016,02,17,08,59,7.80
2016,02,17,09,00,7.80
2016,02,17,09,01,7.80
2016,02,17,09,02,7.80
2016,02,17,09,03,7.80
2016,02,17,09,04,7.80
2016,02,17,09,05,7.80
2016,02,17,09,06,7.80
2016,02,17,09,07,7.80
2016,02,17,09,08,7.80
2016,02,17,09,09,7.80
2016,02,17,09,10,7.80
2016,02,17,09,11,7.80
2016,02,17,09,12,7.80
2016,02,17,09,13,7.80
2016,02,17,09,14,7.80
2016,02,17,09,15,7.90
2016,02,17,09,16,7.90
2016,02,17,09,17,7.90
2016,02,17,09,18,7.90
2016,02,17,09,19,7.90
2016,02,17,09,20,7.90
2016,02,17,09,21,7.90
2016,02,17,09,22,7.90
2016,02,17,09,23,7.90
2016,02,17,09,24,7.90
2016,02,17,09,25,8.00
2016,02,17,09,26,8.00
2016,02,17,09,27,8.00
2016,02,17,09,28,8.00
2016,02,17,09,29,8.00
2016,02,17,09,30,8.10
2016,02,17,09,31,8.10
2016,02,17,09,32,8.10
2016,02,17,09,33,8.10
2016,02,17,09,34,8.10
2016,02,17,09,35,8.20
2016,02,17,09,36,8.20
2016,02,17,09,37,8.20
2016,02,17,09,38,8.20
2016,02,17,09,39,8.20
2016,02,17,09,40,8.20
2016,02,17,09,41,8.20
2016,02,17,09,42,8.20
2016,02,17,09,43,8.20
2016,02,17,09,44,8.20
2016,02,17,09,45,8.30
2016,02,17,09,46,8.30
2016,02,17,09,47,8.30
2016,02,17,09,48,8.30
2016,02,17,09,49,8.30
2016,02,17,09,50,8.30
2016,02,17,09,51,8.30
2016,02,17,09,52,8.30
2016,02,17,09,53,8.30
2016,02,17,09,54,8.30
2016,02,17,09,55,8.40
2016,02,17,09,56,8.40
2016,02,17,09,57,8.40
2016,02,17,09,58,8.40
2016,02,17,09,59,8.40
2016,02,17,10,00,8.50
2016,02,17,10,01,8.50
2016,02,17,10,02,8.50
2016,02,17,10,03,8.60
2016,02,17,10,04,8.60
2016,02,17,10,05,8.60
2016,02,17,10,06,8.70
2016,02,17,10,07,8.70
2016,02,17,10,08,8.70
2016,02,17,10,09,8.70
2016,02,17,10,10,8.80
2016,02,17,10,11,8.80
2016,02,17,10,12,8.90
2016,02,17,10,13,8.90
2016,02,17,10,14,8.90
2016,02,17,10,15,9.00
2016,02,17,10,16,9.00
2016,02,17,10,17,9.10
2016,02,17,10,18,9.10
2016,02,17,10,19,9.10
2016,02,17,10,20,9.10
2016,02,17,10,21,9.20
2016,02,17,10,22,9.20
2016,02,17,10,23,9.20
2016,02,17,10,24,9.30
2016,02,17,10,25,9.30
2016,02,17,10,26,9.30
2016,02,17,10,27,9.40
2016,02,17,10,28,9.40
2016,02,17,10,29,9.40
2016,02,17,10,30,9.50
2016,02,17,10,31,9.50
2016,02,17,10,32,9.50
2016,02,17,10,33,9.60
2016,02,17,10,34,9.60
2016,02,17,10,35,9.60
2016,02,17,10,36,9.60
2016,02,17,10,37,9.60
2016,02,17,10,38,9.70
2016,02,17,10,39,9.70
2016,02,17,10,40,9.70
2016,02,17,10,41,9.70
2016,02,17,10,42,9.70
2016,02,17,10,43,9.80
2016,02,17,10,44,9.80
2016,02,17,10,45,9.80
2016,02,17,10,46,9.80
2016,02,17,10,47,9.80
2016,02,17,10,48,9.80
2016,02,17,10,49,9.80
2016,02,17,10,50,9.80
2016,02,17,10,51,9.80
2016,02,17,10,52,9.90
2016,02,17,10,53,9.90
2016,02,17,10,54,9.90
2016,02,17,10,55,9.90
2016,02,17,10,56,9.90
2016,02,17,10,57,9.90
2016,02,17,10,58,9.90
2016,02,17,10,59,9.90
2016,02,17,11,00,9.90
2016,02,17,11,01,9.90
2016,02,17,11,02,9.90
2016,02,17,11,03,9.80
2016,02,17,11,04,9.80
2016,02,17,11,05,9.80
2016,02,17,11,06,9.80
2016,02,17,11,07,9.80
2016,02,17,11,08,9.80
2016,02,17,11,09,9.80
2016,02,17,11,10,9.80
2016,02,17,11,11,9.80
2016,02,17,11,12,9.80
2016,02,17,11,13,9.80
2016,02,17,11,14,9.80
2016,02,17,11,15,9.80
2016,02,17,11,16,9.80
2016,02,17,11,17,9.80
2016,02,17,11,18,9.70
2016,02,17,11,19,9.70
2016,02,17,11,20,9.70
2016,02,17,11,21,9.70
2016,02,17,11,22,9.70
2016,02,17,11,23,9.70
2016,02,17,11,24,9.70
2016,02,17,11,25,9.70
2016,02,17,11,26,9.70
2016,02,17,11,27,9.70
2016,02,17,11,28,9.70
2016,02,17,11,29,9.70
2016,02,17,11,30,9.70
2016,02,17,11,31,9.70
2016,02,17,11,32,9.70
2016,02,17,11,33,9.70
2016,02,17,11,34,9.70
2016,02,17,11,35,9.70
2016,02,17,11,36,9.70
2016,02,17,11,37,9.70
2016,02,17,11,38,9.70
2016,02,17,11,39,9.70
2016,02,17,11,40,9.70
2016,02,17,11,41,9.70
2016,02,17,11,42,9.70
2016,02,17,11,43,9.70
2016,02,17,11,44,9.70
2016,02,17,11,45,9.80
2016,02,17,11,46,9.80
2016,02,17,11,47,9.80
2016,02,17,11,48,9.80
2016,02,17,11,49,9.80
2016,02,17,11,50,9.80
2016,02,17,11,51,9.80
2016,02,17,11,52,9.80
2016,02,17,11,53,9.80
2016,02,17,11,54,9.80
2016,02,17,11,55,9.80
2016,02,17,11,56,9.80
2016,02,17,11,57,9.80
2016,02,17,11,58,9.80
2016,02,17,11,59,9.80
2016,02,17,12,00,9.80
2016,02,17,12,01,9.80
2016,02,17,12,02,9.80
2016,02,17,12,03,9.80
2016,02,17,12,04,9.80
2016,02,17,12,05,9.80
2016,02,17,12,06,9.70
2016,02,17,12,07,9.70
2016,02,17,12,08,9.70
2016,02,17,12,09,9.70
2016,02,17,12,10,9.70
2016,02,17,12,11,9.70
2016,02,17,12,12,9.70
2016,02,17,12,13,9.70
2016,02,17,12,14,9.70
2016,02,17,12,15,9.70
2016,02,17,12,16,9.70
2016,02,17,12,17,9.70
2016,02,17,12,18,9.60
2016,02,17,12,19,9.60
2016,02,17,12,20,9.60
2016,02,17,12,21,9.60
2016,02,17,12,22,9.70
2016,02,17,12,23,9.70
2016,02,17,12,24,9.70
2016,02,17,12,25,9.70
2016,02,17,12,26,9.70
2016,02,17,12,27,9.70
2016,02,17,12,28,9.80
2016,02,17,12,29,9.80
2016,02,17,12,30,9.80
2016,02,17,12,31,9.80
2016,02,17,12,32,9.80
2016,02,17,12,33,9.80
2016,02,17,12,34,9.80
2016,02,17,12,35,9.80
2016,02,17,12,36,9.80
2016,02,17,12,37,9.80
2016,02,17,12,38,9.90
2016,02,17,12,39,9.90
2016,02,17,12,40,9.90
2016,02,17,12,41,9.90
2016,02,17,12,42,9.90
2016,02,17,12,43,9.90
2016,02,17,12,44,9.80
2016,02,17,12,45,9.90
2016,02,17,12,46,9.80
2016,02,17,12,47,9.90
2016,02,17,12,48,9.90
2016,02,17,12,49,9.90
2016,02,17,12,50,9.90
2016,02,17,12,51,9.90
2016,02,17,12,52,9.90
2016,02,17,12,53,9.90
2016,02,17,12,54,9.90
2016,02,17,12,55,9.90
2016,02,17,12,56,9.90
2016,02,17,12,57,9.90
2016,02,17,12,58,9.90
2016,02,17,12,59,9.90
2016,02,17,13,00,9.90
2016,02,17,13,01,10.00
2016,02,17,13,02,10.00
2016,02,17,13,03,10.00
2016,02,17,13,04,10.00
2016,02,17,13,05,10.10
2016,02,17,13,06,10.10
2016,02,17,13,07,10.10
2016,02,17,13,08,10.10
2016,02,17,13,09,10.20
2016,02,17,13,10,10.20
2016,02,17,13,11,10.20
2016,02,17,13,12,10.20
2016,02,17,13,13,10.30
2016,02,17,13,14,10.30
2016,02,17,13,15,10.30
2016,02,17,13,16,10.40
2016,02,17,13,17,10.40
2016,02,17,13,18,10.50
2016,02,17,13,19,10.50
2016,02,17,13,20,10.60
2016,02,17,13,21,10.60
2016,02,17,13,22,10.60
2016,02,17,13,23,10.70
2016,02,17,13,24,10.70
2016,02,17,13,25,10.70
2016,02,17,13,26,10.70
2016,02,17,13,27,10.80
2016,02,17,13,28,10.80
2016,02,17,13,29,10.80
2016,02,17,13,30,10.80
2016,02,17,13,31,10.80
2016,02,17,13,32,10.80
2016,02,17,13,33,10.80
2016,02,17,13,34,10.80
2016,02,17,13,35,10.80
2016,02,17,13,36,10.80
2016,02,17,13,37,10.90
2016,02,17,13,38,10.90
2016,02,17,13,39,10.90
2016,02,17,13,40,10.90
2016,02,17,13,41,10.90
2016,02,17,13,42,10.90
2016,02,17,13,43,10.90
2016,02,17,13,44,10.90
2016,02,17,13,45,10.90
2016,02,17,13,46,10.80
2016,02,17,13,47,10.80
2016,02,17,13,48,10.80
2016,02,17,13,49,10.80
2016,02,17,13,50,10.80
2016,02,17,13,51,10.80
2016,02,17,13,52,10.80
2016,02,17,13,53,10.80
2016,02,17,13,54,10.80
2016,02,17,13,55,10.80
2016,02,17,13,56,10.80
2016,02,17,13,57,10.80
2016,02,17,13,58,10.80
2016,02,17,13,59,10.90
2016,02,17,14,00,10.90
2016,02,17,14,01,10.90
2016,02,17,14,02,10.90
2016,02,17,14,03,10.90
2016,02,17,14,04,10.90
2016,02,17,14,05,10.90
2016,02,17,14,06,10.90
2016,02,17,14,07,11.00
2016,02,17,14,08,11.00
2016,02,17,14,09,11.00
2016,02,17,14,10,11.00
2016,02,17,14,11,11.00
2016,02,17,14,12,11.10
2016,02,17,14,13,11.10
2016,02,17,14,14,11.10
2016,02,17,14,15,11.20
2016,02,17,14,16,11.20
2016,02,17,14,17,11.20
2016,02,17,14,18,11.20
2016,02,17,14,19,11.20
2016,02,17,14,20,11.30
2016,02,17,14,21,11.30
2016,02,17,14,22,11.30
2016,02,17,14,23,11.30
2016,02,17,14,24,11.30
2016,02,17,14,25,11.30
2016,02,17,14,26,11.30
2016,02,17,14,27,11.30
2016,02,17,14,28,11.30
2016,02,17,14,29,11.30
2016,02,17,14,30,11.30
2016,02,17,14,31,11.30
2016,02,17,14,32,11.30
2016,02,17,14,33,11.30
2016,02,17,14,34,11.30
2016,02,17,14,35,11.30
2016,02,17,14,36,11.20
2016,02,17,14,37,11.20
2016,02,17,14,38,11.20
2016,02,17,14,39,11.20
2016,02,17,14,40,11.20
2016,02,17,14,41,11.20
2016,02,17,14,42,11.20
2016,02,17,14,43,11.20
2016,02,17,14,44,11.10
2016,02,17,14,45,11.10
2016,02,17,14,46,11.10
2016,02,17,14,47,11.10
2016,02,17,14,48,11.10
2016,02,17,14,49,11.10
2016,02,17,14,50,11.10
2016,02,17,14,51,11.10
2016,02,17,14,52,11.10
2016,02,17,14,53,11.10
2016,02,17,14,54,11.10
2016,02,17,14,55,11.10
2016,02,17,14,56,11.10
2016,02,17,14,57,11.10
2016,02,17,14,58,11.10
2016,02,17,14,59,11.10
2016,02,17,15,00,11.00
2016,02,17,15,01,11.10
2016,02,17,15,02,11.00
2016,02,17,15,03,11.00
2016,02,17,15,04,11.00
2016,02,17,15,05,11.00
2016,02,17,15,06,11.00
2016,02,17,15,07,11.00
2016,02,17,15,08,11.00
2016,02,17,15,09,10.90
2016,02,17,15,10,10.90
2016,02,17,15,11,10.90
2016,02,17,15,12,11.00
2016,02,17,15,13,11.00
2016,02,17,15,14,10.90
2016,02,17,15,15,11.00
2016,02,17,15,16,11.00
2016,02,17,15,17,11.00
2016,02,17,15,18,11.00
2016,02,17,15,19,11.00
2016,02,17,15,20,11.00
2016,02,17,15,21,11.00
2016,02,17,15,22,11.00
2016,02,17,15,23,11.00
2016,02,17,15,24,11.00
2016,02,17,15,25,11.00
2016,02,17,15,26,11.00
2016,02,17,15,27,11.00
2016,02,17,15,28,11.10
2016,02,17,15,29,11.00
2016,02,17,15,30,11.10
2016,02,17,15,31,11.00
2016,02,17,15,32,11.00
2016,02,17,15,33,11.00
2016,02,17,15,34,11.00
2016,02,17,15,35,11.00
2016,02,17,15,36,10.90
2016,02,17,15,37,10.90
2016,02,17,15,38,10.90
2016,02,17,15,39,10.90
2016,02,17,15,40,10.90
2016,02,17,15,41,10.90
2016,02,17,15,42,10.90
2016,02,17,15,43,10.90
2016,02,17,15,44,10.90
2016,02,17,15,45,10.90
2016,02,17,15,46,10.90
2016,02,17,15,47,10.90
2016,02,17,15,48,10.90
2016,02,17,15,49,10.80
2016,02,17,15,50,10.90
2016,02,17,15,51,10.90
2016,02,17,15,52,10.90
2016,02,17,15,53,10.80
2016,02,17,15,54,10.90
2016,02,17,15,55,10.80
2016,02,17,15,56,10.90
2016,02,17,15,57,10.90
2016,02,17,15,58,10.90
2016,02,17,15,59,10.90
2016,02,17,16,00,10.90
2016,02,17,16,01,10.90
2016,02,17,16,02,10.90
2016,02,17,16,03,10.90
2016,02,17,16,04,10.90
2016,02,17,16,05,10.90
2016,02,17,16,06,10.90
2016,02,17,16,07,10.80
2016,02,17,16,08,10.80
2016,02,17,16,09,10.80
2016,02,17,16,10,10.80
2016,02,17,16,11,10.80
2016,02,17,16,12,10.80
2016,02,17,16,13,10.80
2016,02,17,16,14,10.80
2016,02,17,16,15,10.80
2016,02,17,16,16,10.80
2016,02,17,16,17,10.80
2016,02,17,16,18,10.80
2016,02,17,16,19,10.80
2016,02,17,16,20,10.80
2016,02,17,16,21,10.80
2016,02,17,16,22,10.80
2016,02,17,16,23,10.70
2016,02,17,16,24,10.70
2016,02,17,16,25,10.70
2016,02,17,16,26,10.70
2016,02,17,16,27,10.70
2016,02,17,16,28,10.70
2016,02,17,16,29,10.70
2016,02,17,16,30,10.60
2016,02,17,16,31,10.60
2016,02,17,16,32,10.60
2016,02,17,16,33,10.60
2016,02,17,16,34,10.60
2016,02,17,16,35,10.60
2016,02,17,16,36,10.60
2016,02,17,16,37,10.60
2016,02,17,16,38,10.50
2016,02,17,16,39,10.50
2016,02,17,16,40,10.50
2016,02,17,16,41,10.40
2016,02,17,16,42,10.40
2016,02,17,16,43,10.40
2016,02,17,16,44,10.40
2016,02,17,16,45,10.40
2016,02,17,16,46,10.40
2016,02,17,16,47,10.30
2016,02,17,16,48,10.30
2016,02,17,16,49,10.30
2016,02,17,16,50,10.30
2016,02,17,16,51,10.30
2016,02,17,16,52,10.30
2016,02,17,16,53,10.30
2016,02,17,16,54,10.30
2016,02,17,16,55,10.30
2016,02,17,16,56,10.30
2016,02,17,16,57,10.30
2016,02,17,16,58,10.30
2016,02,17,16,59,10.20
2016,02,17,17,00,10.20
2016,02,17,17,01,10.20
2016,02,17,17,02,10.20
2016,02,17,17,03,10.20
2016,02,17,17,04,10.20
2016,02,17,17,05,10.20
2016,02,17,17,06,10.20
2016,02,17,17,07,10.10
2016,02,17,17,08,10.10
2016,02,17,17,09,10.10
2016,02,17,17,10,10.10
2016,02,17,17,11,10.10
2016,02,17,17,12,10.10
2016,02,17,17,13,10.00
2016,02,17,17,14,10.00
2016,02,17,17,15,10.00
2016,02,17,17,16,10.00
2016,02,17,17,17,10.00
2016,02,17,17,18,9.90
2016,02,17,17,19,9.90
2016,02,17,17,20,9.90
2016,02,17,17,21,9.90
2016,02,17,17,22,9.90
2016,02,17,17,23,9.90
2016,02,17,17,24,9.90
2016,02,17,17,25,9.90
2016,02,17,17,26,9.90
2016,02,17,17,27,9.90
2016,02,17,17,28,9.90
2016,02,17,17,29,9.90
2016,02,17,17,30,9.90
2016,02,17,17,31,9.90
2016,02,17,17,32,9.90
2016,02,17,17,33,9.90
2016,02,17,17,34,9.80
2016,02,17,17,35,9.80
2016,02,17,17,36,9.80
2016,02,17,17,37,9.80
2016,02,17,17,38,9.80
2016,02,17,17,39,9.80
2016,02,17,17,40,9.80
2016,02,17,17,41,9.80
2016,02,17,17,42,9.80
2016,02,17,17,43,9.80
2016,02,17,17,44,9.70
2016,02,17,17,45,9.70
2016,02,17,17,46,9.70
2016,02,17,17,47,9.70
2016,02,17,17,48,9.70
2016,02,17,17,49,9.70
2016,02,17,17,50,9.70
2016,02,17,17,51,9.70
2016,02,17,17,52,9.70
2016,02,17,17,53,9.70
2016,02,17,17,54,9.70
2016,02,17,17,55,9.60